Time,TemperatureF,DewpointF,PressureIn,WindDirection,WindDirectionDegrees,WindSpeedMPH,WindSpeedGustMPH,Humidity,HourlyPrecipIn,Conditions,Clouds,dailyrainin,SoftwareType,DateUTC
2013-06-14 00:00:00,55.0,54.1,29.59,SE,135,3.1,3.1,97,0.01,,,-99.99,meteobridge,2013-06-14 04:00:00,
2013-06-14 00:01:00,55.0,54.1,29.59,SSE,158,3.8,3.8,97,0.01,,,0.00,meteobridge,2013-06-14 04:01:00,
2013-06-14 00:02:00,55.0,54.1,29.59,SSE,158,3.8,3.8,97,0.01,,,0.00,meteobridge,2013-06-14 04:02:00,
2013-06-14 00:07:00,55.0,54.1,29.59,SE,135,3.8,6.9,97,0.02,,,0.01,meteobridge,2013-06-14 04:07:00,
2013-06-14 00:12:00,55.0,54.1,29.60,West,270,3.1,3.1,97,0.04,,,0.02,meteobridge,2013-06-14 04:12:00,
2013-06-14 00:17:00,55.0,54.1,29.61,NW,315,3.1,3.8,97,0.05,,,0.04,meteobridge,2013-06-14 04:17:00,
2013-06-14 00:22:00,55.0,54.1,29.60,SSW,203,4.5,4.5,97,0.06,,,0.05,meteobridge,2013-06-14 04:22:00,
2013-06-14 00:28:00,55.0,54.1,29.59,North,0,0.7,3.8,97,0.08,,,0.07,meteobridge,2013-06-14 04:28:00,
2013-06-14 00:33:00,55.0,54.1,29.59,North,0,3.8,3.8,97,0.08,,,0.07,meteobridge,2013-06-14 04:33:00,
2013-06-14 00:38:00,55.0,54.1,29.59,NW,315,2.2,2.2,97,0.08,,,0.07,meteobridge,2013-06-14 04:38:00,
2013-06-14 00:43:00,54.9,54.0,29.59,South,180,3.8,3.8,97,0.09,,,0.08,meteobridge,2013-06-14 04:43:00,
2013-06-14 00:48:00,54.9,54.0,29.58,West,270,3.8,3.8,97,0.09,,,0.08,meteobridge,2013-06-14 04:48:00,
2013-06-14 00:53:00,54.9,54.0,29.57,SE,135,3.8,3.8,97,0.09,,,0.09,meteobridge,2013-06-14 04:53:00,
2013-06-14 00:59:00,54.7,53.8,29.56,South,180,3.1,3.1,97,0.11,,,0.11,meteobridge,2013-06-14 04:59:00,
2013-06-14 01:04:00,54.5,53.6,29.55,South,180,3.1,6.9,97,0.11,,,0.12,meteobridge,2013-06-14 05:04:00,
2013-06-14 01:09:00,54.5,53.6,29.55,SE,135,3.8,3.8,97,0.09,,,0.12,meteobridge,2013-06-14 05:09:00,
2013-06-14 01:14:00,54.3,53.4,29.55,West,270,4.5,4.5,97,0.08,,,0.12,meteobridge,2013-06-14 05:14:00,
2013-06-14 01:19:00,54.3,53.4,29.55,SW,225,3.8,8.3,97,0.07,,,0.12,meteobridge,2013-06-14 05:19:00,
2013-06-14 01:24:00,54.3,53.4,29.56,NW,315,6.0,6.0,97,0.07,,,0.13,meteobridge,2013-06-14 05:24:00,
2013-06-14 01:30:00,54.1,53.2,29.56,SSE,158,3.8,6.0,97,0.06,,,0.13,meteobridge,2013-06-14 05:30:00,
2013-06-14 01:35:00,54.1,53.2,29.56,NW,315,2.2,3.1,97,0.06,,,0.13,meteobridge,2013-06-14 05:35:00,
2013-06-14 01:40:00,54.0,53.1,29.56,West,270,3.8,3.8,97,0.05,,,0.13,meteobridge,2013-06-14 05:40:00,
2013-06-14 01:45:00,54.0,53.1,29.56,West,270,3.8,3.8,97,0.06,,,0.14,meteobridge,2013-06-14 05:45:00,
2013-06-14 01:50:00,53.8,52.9,29.56,NE,45,5.4,5.4,97,0.05,,,0.14,meteobridge,2013-06-14 05:50:00,
2013-06-14 01:55:00,53.8,52.9,29.55,NE,45,7.6,7.6,97,0.04,,,0.14,meteobridge,2013-06-14 05:55:00,
2013-06-14 02:01:00,53.8,52.9,29.55,SW,225,8.3,9.2,97,0.02,,,0.14,meteobridge,2013-06-14 06:01:00,
2013-06-14 02:06:00,53.6,52.7,29.55,SW,225,5.4,10.7,97,0.04,,,0.15,meteobridge,2013-06-14 06:06:00,
2013-06-14 02:11:00,53.6,52.7,29.55,North,0,5.4,5.4,97,0.04,,,0.15,meteobridge,2013-06-14 06:11:00,
2013-06-14 02:16:00,53.4,52.9,29.54,NW,315,5.4,5.4,98,0.04,,,0.15,meteobridge,2013-06-14 06:16:00,
2013-06-14 02:21:00,53.6,52.7,29.55,SW,225,3.1,5.4,97,0.04,,,0.17,meteobridge,2013-06-14 06:21:00,
2013-06-14 02:26:00,53.6,52.7,29.55,East,90,7.6,7.6,97,0.04,,,0.17,meteobridge,2013-06-14 06:26:00,
2013-06-14 02:32:00,53.4,52.9,29.55,SE,135,1.6,3.1,98,0.04,,,0.17,meteobridge,2013-06-14 06:32:00,
2013-06-14 02:37:00,53.6,52.7,29.56,SW,225,4.5,4.5,97,0.05,,,0.18,meteobridge,2013-06-14 06:37:00,
2013-06-14 02:42:00,53.6,52.7,29.56,West,270,1.6,1.6,97,0.06,,,0.19,meteobridge,2013-06-14 06:42:00,
2013-06-14 02:47:00,53.6,52.7,29.56,SE,135,4.5,4.5,97,0.05,,,0.19,meteobridge,2013-06-14 06:47:00,
2013-06-14 02:52:00,53.6,52.7,29.56,NW,315,3.1,5.4,97,0.05,,,0.19,meteobridge,2013-06-14 06:52:00,
2013-06-14 02:57:00,53.6,52.7,29.55,South,180,4.5,6.0,97,0.07,,,0.21,meteobridge,2013-06-14 06:57:00,
2013-06-14 03:03:00,53.6,52.7,29.55,NW,315,1.6,4.5,97,0.08,,,0.22,meteobridge,2013-06-14 07:03:00,
2013-06-14 03:08:00,53.6,52.7,29.55,SW,225,2.2,4.5,97,0.08,,,0.24,meteobridge,2013-06-14 07:08:00,
2013-06-14 03:13:00,53.6,52.7,29.55,South,180,6.0,6.0,97,0.08,,,0.24,meteobridge,2013-06-14 07:13:00,
2013-06-14 03:18:00,53.6,52.7,29.54,SE,135,3.8,4.5,97,0.08,,,0.25,meteobridge,2013-06-14 07:18:00,
2013-06-14 03:23:00,53.6,52.7,29.54,SE,135,3.8,3.8,97,0.08,,,0.25,meteobridge,2013-06-14 07:23:00,
2013-06-14 03:28:00,53.6,52.7,29.54,South,180,3.1,6.0,97,0.09,,,0.26,meteobridge,2013-06-14 07:28:00,
2013-06-14 03:34:00,53.6,52.7,29.54,NW,315,4.5,4.5,97,0.09,,,0.26,meteobridge,2013-06-14 07:34:00,
2013-06-14 03:39:00,53.8,52.9,29.54,NW,315,3.8,3.8,97,0.08,,,0.26,meteobridge,2013-06-14 07:39:00,
2013-06-14 03:44:00,53.8,52.9,29.53,South,180,6.9,6.9,97,0.07,,,0.26,meteobridge,2013-06-14 07:44:00,
2013-06-14 03:49:00,53.8,52.9,29.53,NW,315,6.0,6.0,97,0.07,,,0.26,meteobridge,2013-06-14 07:49:00,
2013-06-14 03:54:00,53.8,52.9,29.53,North,0,3.8,5.4,97,0.06,,,0.26,meteobridge,2013-06-14 07:54:00,
2013-06-14 03:59:00,53.8,52.9,29.53,SE,135,4.5,4.5,97,0.04,,,0.26,meteobridge,2013-06-14 07:59:00,
2013-06-14 04:05:00,53.8,52.9,29.53,West,270,4.5,6.0,97,0.04,,,0.26,meteobridge,2013-06-14 08:05:00,
2013-06-14 04:10:00,53.8,52.9,29.53,NW,315,3.1,3.1,97,0.02,,,0.26,meteobridge,2013-06-14 08:10:00,
2013-06-14 04:15:00,53.8,52.9,29.52,West,270,5.4,5.4,97,0.02,,,0.26,meteobridge,2013-06-14 08:15:00,
2013-06-14 04:20:00,53.8,52.9,29.52,West,270,2.2,4.5,97,0.01,,,0.26,meteobridge,2013-06-14 08:20:00,
2013-06-14 04:25:00,53.8,52.9,29.53,NW,315,4.5,4.5,97,0.01,,,0.26,meteobridge,2013-06-14 08:25:00,
2013-06-14 04:30:00,53.6,52.7,29.53,SE,135,4.5,4.5,97,0.00,,,0.26,meteobridge,2013-06-14 08:30:00,
2013-06-14 04:36:00,53.6,52.7,29.53,SE,135,4.5,4.5,97,0.02,,,0.28,meteobridge,2013-06-14 08:36:00,
2013-06-14 04:41:00,53.2,52.7,29.53,SE,135,8.3,8.3,98,0.02,,,0.28,meteobridge,2013-06-14 08:41:00,
2013-06-14 04:46:00,53.2,52.7,29.54,NW,315,6.9,6.9,98,0.04,,,0.30,meteobridge,2013-06-14 08:46:00,
2013-06-14 04:51:00,53.2,52.7,29.54,SE,135,3.8,4.5,98,0.05,,,0.31,meteobridge,2013-06-14 08:51:00,
2013-06-14 04:56:00,53.1,52.5,29.55,NW,315,1.6,9.2,98,0.06,,,0.32,meteobridge,2013-06-14 08:56:00,
2013-06-14 05:01:00,53.1,52.5,29.55,South,180,3.8,5.4,98,0.07,,,0.33,meteobridge,2013-06-14 09:01:00,
2013-06-14 05:07:00,53.1,52.5,29.55,SW,225,2.2,5.4,98,0.07,,,0.33,meteobridge,2013-06-14 09:07:00,
2013-06-14 05:12:00,53.1,52.5,29.55,East,90,2.2,2.2,98,0.07,,,0.33,meteobridge,2013-06-14 09:12:00,
2013-06-14 05:17:00,53.1,52.5,29.56,North,0,3.1,3.1,98,0.07,,,0.33,meteobridge,2013-06-14 09:17:00,
2013-06-14 05:22:00,53.1,52.5,29.56,SE,135,6.0,6.0,98,0.08,,,0.34,meteobridge,2013-06-14 09:22:00,
2013-06-14 05:27:00,53.1,52.5,29.56,NW,315,3.8,3.8,98,0.08,,,0.34,meteobridge,2013-06-14 09:27:00,
2013-06-14 05:32:00,53.1,52.5,29.57,North,0,1.6,3.8,98,0.07,,,0.34,meteobridge,2013-06-14 09:32:00,
2013-06-14 05:38:00,53.1,52.5,29.57,SSE,158,6.0,6.0,98,0.07,,,0.35,meteobridge,2013-06-14 09:38:00,
2013-06-14 05:43:00,53.1,52.5,29.57,North,0,3.1,5.4,98,0.07,,,0.37,meteobridge,2013-06-14 09:43:00,
2013-06-14 05:48:00,53.1,52.5,29.56,NW,315,5.4,5.4,98,0.06,,,0.37,meteobridge,2013-06-14 09:48:00,
2013-06-14 05:53:00,53.1,52.5,29.56,SSE,158,4.5,4.5,98,0.06,,,0.37,meteobridge,2013-06-14 09:53:00,
2013-06-14 05:58:00,53.1,52.5,29.57,SE,135,3.1,3.1,98,0.06,,,0.38,meteobridge,2013-06-14 09:58:00,
2013-06-14 06:04:00,53.1,52.5,29.57,East,90,0.7,6.9,98,0.05,,,0.38,meteobridge,2013-06-14 10:04:00,
2013-06-14 06:09:00,53.1,52.5,29.57,NW,315,3.1,6.0,98,0.06,,,0.39,meteobridge,2013-06-14 10:09:00,
2013-06-14 06:14:00,53.1,52.5,29.57,SE,135,3.8,3.8,98,0.06,,,0.39,meteobridge,2013-06-14 10:14:00,
2013-06-14 06:19:00,52.9,52.3,29.57,WSW,248,2.2,3.8,98,0.06,,,0.40,meteobridge,2013-06-14 10:19:00,
2013-06-14 06:24:00,52.9,52.3,29.56,SE,135,3.8,4.5,98,0.06,,,0.40,meteobridge,2013-06-14 10:24:00,
2013-06-14 06:30:00,52.9,52.3,29.57,SE,135,1.6,3.8,98,0.07,,,0.41,meteobridge,2013-06-14 10:30:00,
2013-06-14 06:35:00,52.9,52.3,29.57,NW,315,3.8,3.8,98,0.06,,,0.41,meteobridge,2013-06-14 10:35:00,
2013-06-14 06:40:00,52.9,52.3,29.57,SW,225,3.8,3.8,98,0.06,,,0.41,meteobridge,2013-06-14 10:40:00,
2013-06-14 06:45:00,52.7,52.2,29.57,North,0,6.0,6.0,98,0.06,,,0.43,meteobridge,2013-06-14 10:45:00,
2013-06-14 06:50:00,52.7,52.2,29.57,North,0,4.5,5.4,98,0.06,,,0.43,meteobridge,2013-06-14 10:50:00,
2013-06-14 06:55:00,52.7,52.2,29.57,South,180,4.5,4.5,98,0.05,,,0.43,meteobridge,2013-06-14 10:55:00,
2013-06-14 07:01:00,52.7,52.2,29.57,North,0,3.1,3.8,98,0.05,,,0.43,meteobridge,2013-06-14 11:01:00,
2013-06-14 07:06:00,52.7,52.2,29.57,NW,315,3.8,5.4,98,0.05,,,0.44,meteobridge,2013-06-14 11:06:00,
2013-06-14 07:11:00,52.9,52.3,29.57,West,270,4.5,4.5,98,0.06,,,0.45,meteobridge,2013-06-14 11:11:00,
2013-06-14 07:16:00,53.1,52.5,29.56,NW,315,3.1,7.6,98,0.05,,,0.45,meteobridge,2013-06-14 11:16:00,
2013-06-14 07:21:00,52.9,52.3,29.57,East,90,3.8,5.4,98,0.05,,,0.45,meteobridge,2013-06-14 11:21:00,
2013-06-14 07:26:00,52.9,52.3,29.56,East,90,3.8,8.3,98,0.05,,,0.45,meteobridge,2013-06-14 11:26:00,
2013-06-14 07:32:00,52.9,52.3,29.57,SE,135,2.2,5.4,98,0.05,,,0.46,meteobridge,2013-06-14 11:32:00,
2013-06-14 07:37:00,53.1,52.5,29.57,South,180,4.5,4.5,98,0.05,,,0.46,meteobridge,2013-06-14 11:37:00,
2013-06-14 07:42:00,52.9,52.3,29.58,South,180,4.5,4.5,98,0.05,,,0.46,meteobridge,2013-06-14 11:42:00,
2013-06-14 07:47:00,52.9,52.3,29.59,SE,135,3.1,3.8,98,0.04,,,0.46,meteobridge,2013-06-14 11:47:00,
2013-06-14 07:52:00,52.9,52.3,29.59,SW,225,3.1,3.1,98,0.05,,,0.47,meteobridge,2013-06-14 11:52:00,
2013-06-14 07:57:00,52.9,52.3,29.59,NW,315,5.4,5.4,98,0.05,,,0.47,meteobridge,2013-06-14 11:57:00,
2013-06-14 08:03:00,53.1,52.5,29.58,NE,45,3.1,6.9,98,0.05,,,0.48,meteobridge,2013-06-14 12:03:00,
2013-06-14 08:08:00,53.1,52.5,29.59,SW,225,3.1,5.4,98,0.05,,,0.48,meteobridge,2013-06-14 12:08:00,
2013-06-14 08:13:00,53.1,52.5,29.59,South,180,7.6,7.6,98,0.05,,,0.50,meteobridge,2013-06-14 12:13:00,
2013-06-14 08:18:00,53.1,52.5,29.59,North,0,2.2,2.2,98,0.05,,,0.50,meteobridge,2013-06-14 12:18:00,
2013-06-14 08:23:00,53.1,52.5,29.59,NE,45,2.2,4.5,98,0.05,,,0.50,meteobridge,2013-06-14 12:23:00,
2013-06-14 08:28:00,53.1,52.5,29.60,West,270,3.8,3.8,98,0.05,,,0.51,meteobridge,2013-06-14 12:28:00,
2013-06-14 08:34:00,53.1,52.5,29.60,North,0,4.5,6.0,98,0.05,,,0.51,meteobridge,2013-06-14 12:34:00,
2013-06-14 08:39:00,52.9,52.3,29.61,West,270,5.4,5.4,98,0.05,,,0.51,meteobridge,2013-06-14 12:39:00,
2013-06-14 08:44:00,53.1,52.5,29.60,SSE,158,2.2,6.0,98,0.05,,,0.51,meteobridge,2013-06-14 12:44:00,
2013-06-14 08:49:00,53.2,52.7,29.60,South,180,3.1,6.0,98,0.05,,,0.51,meteobridge,2013-06-14 12:49:00,
2013-06-14 08:54:00,53.1,52.5,29.60,WNW,293,6.9,6.9,98,0.05,,,0.52,meteobridge,2013-06-14 12:54:00,
2013-06-14 08:59:00,52.9,52.3,29.60,SE,135,6.0,6.9,98,0.04,,,0.52,meteobridge,2013-06-14 12:59:00,
2013-06-14 09:05:00,52.9,52.3,29.60,North,0,3.8,6.0,98,0.04,,,0.52,meteobridge,2013-06-14 13:05:00,
2013-06-14 09:10:00,52.9,52.3,29.60,South,180,3.1,3.8,98,0.04,,,0.52,meteobridge,2013-06-14 13:10:00,
2013-06-14 09:15:00,53.2,52.7,29.60,SE,135,9.2,9.2,98,0.02,,,0.52,meteobridge,2013-06-14 13:15:00,
2013-06-14 09:20:00,53.2,52.7,29.60,West,270,3.1,3.8,98,0.02,,,0.52,meteobridge,2013-06-14 13:20:00,
2013-06-14 09:25:00,53.6,52.7,29.60,NW,315,5.4,5.4,97,0.01,,,0.52,meteobridge,2013-06-14 13:25:00,
2013-06-14 09:30:00,53.8,52.9,29.59,WNW,293,3.1,4.5,97,0.01,,,0.52,meteobridge,2013-06-14 13:30:00,
2013-06-14 09:36:00,54.0,53.1,29.59,NE,45,2.2,3.8,97,0.01,,,0.52,meteobridge,2013-06-14 13:36:00,
2013-06-14 09:41:00,53.8,52.9,29.60,SSW,203,3.8,6.0,97,0.01,,,0.52,meteobridge,2013-06-14 13:41:00,
2013-06-14 09:46:00,53.8,52.9,29.60,South,180,3.8,6.0,97,0.01,,,0.52,meteobridge,2013-06-14 13:46:00,
2013-06-14 09:51:00,54.1,53.2,29.60,SE,135,4.5,5.4,97,0.00,,,0.52,meteobridge,2013-06-14 13:51:00,
2013-06-14 09:56:00,54.3,53.4,29.60,South,180,4.5,4.5,97,0.00,,,0.52,meteobridge,2013-06-14 13:56:00,
2013-06-14 10:02:00,54.7,53.8,29.59,West,270,8.3,8.3,97,0.00,,,0.52,meteobridge,2013-06-14 14:02:00,
2013-06-14 10:07:00,55.0,54.1,29.60,North,0,6.0,6.0,97,0.00,,,0.52,meteobridge,2013-06-14 14:07:00,
2013-06-14 10:12:00,55.2,54.3,29.60,NW,315,2.2,3.1,97,0.00,,,0.52,meteobridge,2013-06-14 14:12:00,
2013-06-14 10:17:00,55.2,54.3,29.60,North,0,1.6,2.2,97,0.00,,,0.52,meteobridge,2013-06-14 14:17:00,
2013-06-14 10:22:00,55.8,55.4,29.60,NW,315,3.1,6.0,99,0.00,,,0.52,meteobridge,2013-06-14 14:22:00,
2013-06-14 10:27:00,55.8,55.4,29.60,NNE,23,4.5,6.0,99,0.00,,,0.52,meteobridge,2013-06-14 14:27:00,
2013-06-14 10:33:00,55.4,55.0,29.61,NW,315,3.1,5.4,99,0.00,,,0.52,meteobridge,2013-06-14 14:33:00,
2013-06-14 10:38:00,55.8,55.4,29.61,SE,135,1.6,6.0,99,0.00,,,0.52,meteobridge,2013-06-14 14:38:00,
2013-06-14 10:43:00,55.9,55.6,29.61,NW,315,2.2,5.4,99,0.00,,,0.52,meteobridge,2013-06-14 14:43:00,
2013-06-14 10:48:00,56.1,55.6,29.61,WNW,293,7.6,7.6,98,0.01,,,0.53,meteobridge,2013-06-14 14:48:00,
2013-06-14 10:53:00,56.5,55.6,29.61,South,180,3.1,6.0,97,0.01,,,0.53,meteobridge,2013-06-14 14:53:00,
2013-06-14 10:58:00,56.8,55.9,29.61,South,180,4.5,4.5,97,0.01,,,0.53,meteobridge,2013-06-14 14:58:00,
2013-06-14 11:04:00,57.2,55.8,29.61,WNW,293,2.2,4.5,95,0.01,,,0.53,meteobridge,2013-06-14 15:04:00,
2013-06-14 11:09:00,57.4,55.0,29.61,East,90,3.8,5.4,92,0.01,,,0.53,meteobridge,2013-06-14 15:09:00,
2013-06-14 11:14:00,57.7,54.9,29.61,West,270,3.1,6.9,90,0.01,,,0.53,meteobridge,2013-06-14 15:14:00,
2013-06-14 11:19:00,59.0,55.4,29.61,North,0,1.6,3.8,88,0.01,,,0.53,meteobridge,2013-06-14 15:19:00,
2013-06-14 11:24:00,59.7,55.8,29.60,SW,225,5.4,5.4,87,0.01,,,0.53,meteobridge,2013-06-14 15:24:00,
2013-06-14 11:29:00,60.4,56.3,29.61,SE,135,2.2,6.0,86,0.01,,,0.53,meteobridge,2013-06-14 15:29:00,
2013-06-14 11:35:00,60.8,55.9,29.61,SW,225,3.8,9.2,84,0.01,,,0.53,meteobridge,2013-06-14 15:35:00,
2013-06-14 11:40:00,60.8,55.2,29.62,SE,135,3.1,3.8,82,0.01,,,0.53,meteobridge,2013-06-14 15:40:00,
2013-06-14 11:45:00,61.2,55.6,29.61,SE,135,2.2,5.4,82,0.00,,,0.53,meteobridge,2013-06-14 15:45:00,
2013-06-14 11:50:00,61.3,55.4,29.62,North,0,3.8,4.5,81,0.00,,,0.53,meteobridge,2013-06-14 15:50:00,
2013-06-14 11:55:00,61.3,55.4,29.62,South,180,7.6,7.6,81,0.00,,,0.53,meteobridge,2013-06-14 15:55:00,
2013-06-14 12:00:00,60.8,54.7,29.62,East,90,6.9,6.9,80,0.00,,,0.53,meteobridge,2013-06-14 16:00:00,
2013-06-14 12:06:00,60.3,55.0,29.62,SE,135,3.8,3.8,83,0.00,,,0.53,meteobridge,2013-06-14 16:06:00,
2013-06-14 12:11:00,60.8,55.6,29.61,SE,135,4.5,4.5,83,0.00,,,0.53,meteobridge,2013-06-14 16:11:00,
2013-06-14 12:16:00,61.9,55.9,29.61,NW,315,1.6,3.1,81,0.00,,,0.53,meteobridge,2013-06-14 16:16:00,
2013-06-14 12:21:00,62.6,55.9,29.62,SE,135,3.1,3.8,79,0.00,,,0.53,meteobridge,2013-06-14 16:21:00,
2013-06-14 12:26:00,62.8,55.4,29.62,NW,315,3.1,5.4,77,0.00,,,0.53,meteobridge,2013-06-14 16:26:00,
2013-06-14 12:31:00,61.9,54.3,29.62,East,90,5.4,6.9,76,0.00,,,0.53,meteobridge,2013-06-14 16:31:00,
2013-06-14 12:37:00,61.3,54.1,29.62,South,180,2.2,3.8,77,0.00,,,0.53,meteobridge,2013-06-14 16:37:00,
2013-06-14 12:42:00,61.3,54.1,29.62,South,180,2.2,3.8,77,0.00,,,0.53,meteobridge,2013-06-14 16:42:00,
2013-06-14 12:47:00,61.0,54.1,29.62,SW,225,5.4,5.4,78,0.00,,,0.53,meteobridge,2013-06-14 16:47:00,
2013-06-14 12:52:00,60.6,53.8,29.63,South,180,3.8,6.0,78,0.00,,,0.53,meteobridge,2013-06-14 16:52:00,
2013-06-14 12:57:00,60.8,54.7,29.63,South,180,2.2,4.5,80,0.00,,,0.53,meteobridge,2013-06-14 16:57:00,
2013-06-14 13:02:00,60.8,54.7,29.64,NW,315,2.2,2.2,80,0.00,,,0.53,meteobridge,2013-06-14 17:02:00,
2013-06-14 13:08:00,60.1,54.5,29.64,West,270,2.2,5.4,82,0.00,,,0.53,meteobridge,2013-06-14 17:08:00,
2013-06-14 13:13:00,59.5,54.3,29.64,South,180,0.7,5.4,83,0.00,,,0.53,meteobridge,2013-06-14 17:13:00,
2013-06-14 13:18:00,59.9,55.4,29.64,East,90,7.6,7.6,85,0.00,,,0.53,meteobridge,2013-06-14 17:18:00,
2013-06-14 13:23:00,60.1,55.6,29.65,NW,315,3.8,3.8,85,0.00,,,0.53,meteobridge,2013-06-14 17:23:00,
2013-06-14 13:28:00,60.1,55.2,29.65,NW,315,3.8,4.5,84,0.00,,,0.53,meteobridge,2013-06-14 17:28:00,
2013-06-14 13:33:00,59.5,54.3,29.65,NW,315,4.5,5.4,83,0.00,,,0.53,meteobridge,2013-06-14 17:33:00,
2013-06-14 13:39:00,59.9,55.4,29.65,NNW,338,2.2,5.4,85,0.00,,,0.53,meteobridge,2013-06-14 17:39:00,
2013-06-14 13:44:00,60.4,55.9,29.65,SE,135,3.1,7.6,85,0.00,,,0.53,meteobridge,2013-06-14 17:44:00,
2013-06-14 13:49:00,60.3,55.4,29.65,SE,135,3.1,6.0,84,0.00,,,0.53,meteobridge,2013-06-14 17:49:00,
2013-06-14 13:54:00,59.9,54.7,29.64,South,180,6.0,6.0,83,0.00,,,0.53,meteobridge,2013-06-14 17:54:00,
2013-06-14 13:59:00,60.1,55.2,29.64,SE,135,2.2,3.1,84,0.00,,,0.53,meteobridge,2013-06-14 17:59:00,
2013-06-14 14:04:00,60.6,56.1,29.64,SSE,158,9.8,9.8,85,0.00,,,0.53,meteobridge,2013-06-14 18:04:00,
2013-06-14 14:10:00,60.8,55.6,29.64,North,0,3.1,5.4,83,0.00,,,0.53,meteobridge,2013-06-14 18:10:00,
2013-06-14 14:15:00,61.0,55.4,29.64,NW,315,4.5,5.4,82,0.00,,,0.53,meteobridge,2013-06-14 18:15:00,
2013-06-14 14:20:00,61.3,55.4,29.63,WNW,293,2.2,6.9,81,0.00,,,0.53,meteobridge,2013-06-14 18:20:00,
2013-06-14 14:25:00,62.6,56.3,29.64,South,180,6.0,6.0,80,0.00,,,0.53,meteobridge,2013-06-14 18:25:00,
2013-06-14 14:30:00,63.0,54.5,29.64,West,270,4.5,6.0,74,0.00,,,0.53,meteobridge,2013-06-14 18:30:00,
2013-06-14 14:35:00,63.0,55.2,29.64,South,180,4.5,5.4,76,0.00,,,0.53,meteobridge,2013-06-14 18:35:00,
2013-06-14 14:41:00,63.0,55.2,29.64,SE,135,4.5,4.5,76,0.00,,,0.53,meteobridge,2013-06-14 18:41:00,
2013-06-14 14:46:00,62.4,54.0,29.65,ESE,113,5.4,6.0,74,0.00,,,0.53,meteobridge,2013-06-14 18:46:00,
2013-06-14 14:51:00,62.4,54.7,29.64,SE,135,6.9,6.9,76,0.00,,,0.53,meteobridge,2013-06-14 18:51:00,
2013-06-14 14:56:00,62.2,53.4,29.65,East,90,5.4,9.2,73,0.00,,,0.53,meteobridge,2013-06-14 18:56:00,
2013-06-14 15:01:00,61.9,53.4,29.65,South,180,3.8,3.8,74,0.00,,,0.53,meteobridge,2013-06-14 19:01:00,
2013-06-14 15:06:00,62.1,54.3,29.65,South,180,6.0,6.0,76,0.00,,,0.53,meteobridge,2013-06-14 19:06:00,
2013-06-14 15:12:00,61.5,53.6,29.65,NE,45,4.5,5.4,75,0.00,,,0.53,meteobridge,2013-06-14 19:12:00,
2013-06-14 15:17:00,61.2,53.6,29.65,NW,315,3.1,3.1,76,0.00,,,0.53,meteobridge,2013-06-14 19:17:00,
2013-06-14 15:22:00,60.8,53.2,29.65,South,180,3.1,3.8,76,0.00,,,0.53,meteobridge,2013-06-14 19:22:00,
2013-06-14 15:27:00,60.4,53.6,29.65,WSW,248,2.2,6.9,78,0.00,,,0.53,meteobridge,2013-06-14 19:27:00,
2013-06-14 15:32:00,60.3,53.8,29.65,SW,225,3.1,3.1,79,0.00,,,0.53,meteobridge,2013-06-14 19:32:00,
2013-06-14 15:38:00,60.1,53.6,29.66,South,180,2.2,2.2,79,0.00,,,0.53,meteobridge,2013-06-14 19:38:00,
2013-06-14 15:43:00,59.9,53.8,29.65,WNW,293,1.6,3.8,80,0.00,,,0.53,meteobridge,2013-06-14 19:43:00,
2013-06-14 15:48:00,59.9,53.8,29.65,East,90,1.6,3.8,80,0.00,,,0.53,meteobridge,2013-06-14 19:48:00,
2013-06-14 15:53:00,59.9,54.1,29.66,SW,225,4.5,4.5,81,0.00,,,0.53,meteobridge,2013-06-14 19:53:00,
2013-06-14 15:58:00,59.9,54.1,29.66,North,0,3.1,4.5,81,0.00,,,0.53,meteobridge,2013-06-14 19:58:00,
2013-06-14 16:03:00,60.1,54.3,29.66,South,180,6.0,6.9,81,0.00,,,0.53,meteobridge,2013-06-14 20:03:00,
2013-06-14 16:09:00,59.9,53.4,29.66,NW,315,2.2,3.1,79,0.00,,,0.53,meteobridge,2013-06-14 20:09:00,
2013-06-14 16:14:00,59.9,54.1,29.66,West,270,3.1,3.1,81,0.00,,,0.53,meteobridge,2013-06-14 20:14:00,
2013-06-14 16:19:00,60.1,54.3,29.66,NW,315,1.6,2.2,81,0.00,,,0.53,meteobridge,2013-06-14 20:19:00,
2013-06-14 16:24:00,59.9,53.8,29.66,North,0,0.7,4.5,80,0.00,,,0.53,meteobridge,2013-06-14 20:24:00,
2013-06-14 16:29:00,60.1,54.3,29.66,West,270,1.6,3.1,81,0.00,,,0.53,meteobridge,2013-06-14 20:29:00,
2013-06-14 16:34:00,59.9,53.8,29.66,West,270,0.0,0.7,80,0.00,,,0.53,meteobridge,2013-06-14 20:34:00,
2013-06-14 16:40:00,59.9,53.8,29.66,SE,135,2.2,3.1,80,0.00,,,0.53,meteobridge,2013-06-14 20:40:00,
2013-06-14 16:45:00,59.7,53.6,29.66,SE,135,0.7,2.2,80,0.00,,,0.53,meteobridge,2013-06-14 20:45:00,
2013-06-14 16:50:00,59.7,54.0,29.66,South,180,0.0,0.7,81,0.00,,,0.53,meteobridge,2013-06-14 20:50:00,
2013-06-14 16:55:00,59.7,53.6,29.66,NW,315,1.6,3.1,80,0.00,,,0.53,meteobridge,2013-06-14 20:55:00,
2013-06-14 17:00:00,59.7,53.6,29.66,South,180,0.7,2.2,80,0.00,,,0.53,meteobridge,2013-06-14 21:00:00,
2013-06-14 17:05:00,59.9,54.1,29.66,NW,315,2.2,2.2,81,0.00,,,0.53,meteobridge,2013-06-14 21:05:00,
2013-06-14 17:11:00,60.3,54.3,29.66,South,180,0.7,2.2,81,0.00,,,0.53,meteobridge,2013-06-14 21:11:00,
2013-06-14 17:16:00,60.8,54.9,29.66,ESE,113,0.7,1.6,81,0.00,,,0.53,meteobridge,2013-06-14 21:16:00,
2013-06-14 17:21:00,61.2,54.9,29.66,NW,315,2.2,2.2,80,0.00,,,0.53,meteobridge,2013-06-14 21:21:00,
2013-06-14 17:26:00,61.7,55.0,29.66,NW,315,0.0,1.6,79,0.00,,,0.53,meteobridge,2013-06-14 21:26:00,
2013-06-14 17:31:00,61.9,55.2,29.67,SE,135,0.0,0.7,79,0.00,,,0.53,meteobridge,2013-06-14 21:31:00,
2013-06-14 17:36:00,62.2,55.2,29.67,East,90,0.0,0.0,78,0.00,,,0.53,meteobridge,2013-06-14 21:36:00,
2013-06-14 17:42:00,62.4,55.0,29.67,South,180,0.0,0.7,77,0.00,,,0.53,meteobridge,2013-06-14 21:42:00,
2013-06-14 17:47:00,62.4,55.0,29.67,SE,135,0.7,0.7,77,0.00,,,0.53,meteobridge,2013-06-14 21:47:00,
2013-06-14 17:52:00,62.4,54.7,29.67,South,180,0.0,2.2,76,0.00,,,0.53,meteobridge,2013-06-14 21:52:00,
2013-06-14 17:57:00,62.4,55.0,29.67,NW,315,0.7,1.6,77,0.00,,,0.53,meteobridge,2013-06-14 21:57:00,
2013-06-14 18:02:00,62.6,54.5,29.67,NW,315,0.7,0.7,75,0.00,,,0.53,meteobridge,2013-06-14 22:02:00,
2013-06-14 18:07:00,62.6,54.5,29.67,West,270,0.0,0.0,75,0.00,,,0.53,meteobridge,2013-06-14 22:07:00,
2013-06-14 18:13:00,62.6,54.9,29.67,North,0,0.0,0.0,76,0.00,,,0.53,meteobridge,2013-06-14 22:13:00,
2013-06-14 18:18:00,62.6,54.9,29.67,North,0,0.7,0.7,76,0.00,,,0.53,meteobridge,2013-06-14 22:18:00,
2013-06-14 18:23:00,62.6,55.6,29.67,North,0,0.0,0.0,78,0.00,,,0.53,meteobridge,2013-06-14 22:23:00,
2013-06-14 18:28:00,62.4,55.8,29.67,NW,315,0.7,1.6,79,0.00,,,0.53,meteobridge,2013-06-14 22:28:00,
2013-06-14 18:33:00,62.4,55.8,29.66,NW,315,0.7,0.7,79,0.00,,,0.53,meteobridge,2013-06-14 22:33:00,
2013-06-14 18:38:00,62.2,55.6,29.66,NW,315,0.7,0.7,79,0.00,,,0.53,meteobridge,2013-06-14 22:38:00,
2013-06-14 18:44:00,62.2,56.3,29.67,NW,315,0.7,0.7,81,0.00,,,0.53,meteobridge,2013-06-14 22:44:00,
2013-06-14 18:49:00,62.4,56.5,29.67,North,0,0.0,0.7,81,0.00,,,0.53,meteobridge,2013-06-14 22:49:00,
2013-06-14 18:54:00,62.8,56.5,29.67,South,180,0.7,0.7,80,0.00,,,0.53,meteobridge,2013-06-14 22:54:00,
2013-06-14 18:59:00,63.3,57.0,29.67,NW,315,0.0,0.0,80,0.00,,,0.53,meteobridge,2013-06-14 22:59:00,
2013-06-14 19:04:00,63.5,57.2,29.67,NW,315,0.7,0.7,80,0.00,,,0.53,meteobridge,2013-06-14 23:04:00,
2013-06-14 19:09:00,63.5,57.2,29.67,West,270,0.7,0.7,80,0.00,,,0.53,meteobridge,2013-06-14 23:09:00,
2013-06-14 19:15:00,63.5,56.5,29.67,West,270,0.0,0.0,78,0.00,,,0.53,meteobridge,2013-06-14 23:15:00,
2013-06-14 19:20:00,63.3,55.9,29.67,NW,315,0.0,0.0,77,0.00,,,0.53,meteobridge,2013-06-14 23:20:00,
2013-06-14 19:25:00,63.1,56.1,29.67,SE,135,0.0,0.0,78,0.00,,,0.53,meteobridge,2013-06-14 23:25:00,
2013-06-14 19:30:00,62.6,55.9,29.67,North,0,0.7,0.7,79,0.00,,,0.53,meteobridge,2013-06-14 23:30:00,
2013-06-14 19:35:00,62.2,56.3,29.67,SE,135,0.0,0.7,81,0.00,,,0.53,meteobridge,2013-06-14 23:35:00,
2013-06-14 19:40:00,61.5,55.6,29.68,SE,135,0.0,0.0,81,0.00,,,0.53,meteobridge,2013-06-14 23:40:00,
2013-06-14 19:46:00,60.8,55.2,29.68,North,0,0.0,0.0,82,0.00,,,0.53,meteobridge,2013-06-14 23:46:00,
2013-06-14 19:51:00,60.4,55.2,29.68,NW,315,0.7,1.6,83,0.00,,,0.53,meteobridge,2013-06-14 23:51:00,
2013-06-14 19:56:00,59.9,55.0,29.68,South,180,0.7,0.7,84,0.00,,,0.53,meteobridge,2013-06-14 23:56:00,
2013-06-14 20:01:00,59.4,54.5,29.68,South,180,0.7,0.7,84,0.00,,,0.53,meteobridge,2013-06-15 00:01:00,
2013-06-14 20:06:00,59.0,54.1,29.68,South,180,0.7,0.7,84,0.00,,,0.53,meteobridge,2013-06-15 00:06:00,
2013-06-14 20:11:00,58.3,54.1,29.68,South,180,0.0,0.0,86,0.00,,,0.53,meteobridge,2013-06-15 00:11:00,
2013-06-14 20:17:00,57.9,53.8,29.69,South,180,0.0,0.0,86,0.00,,,0.53,meteobridge,2013-06-15 00:17:00,
2013-06-14 20:22:00,57.4,53.2,29.68,South,180,0.0,0.0,86,0.00,,,0.53,meteobridge,2013-06-15 00:22:00,
2013-06-14 20:27:00,57.0,53.2,29.69,South,180,0.0,0.0,87,0.00,,,0.53,meteobridge,2013-06-15 00:27:00,
2013-06-14 20:32:00,56.7,53.1,29.69,North,0,0.7,0.7,88,0.00,,,0.53,meteobridge,2013-06-15 00:32:00,
2013-06-14 20:37:00,56.3,52.9,29.69,South,180,0.0,0.0,88,0.00,,,0.53,meteobridge,2013-06-15 00:37:00,
2013-06-14 20:42:00,55.9,52.7,29.69,South,180,0.0,0.0,89,0.00,,,0.53,meteobridge,2013-06-15 00:42:00,
2013-06-14 20:48:00,55.6,52.3,29.69,South,180,0.0,0.0,89,0.00,,,0.53,meteobridge,2013-06-15 00:48:00,
2013-06-14 20:53:00,55.4,52.5,29.69,South,180,0.0,0.0,90,0.00,,,0.53,meteobridge,2013-06-15 00:53:00,
2013-06-14 20:58:00,55.2,52.7,29.70,North,0,0.7,0.7,91,0.00,,,0.53,meteobridge,2013-06-15 00:58:00,
2013-06-14 21:03:00,55.0,52.5,29.70,North,0,0.0,0.0,91,0.00,,,0.53,meteobridge,2013-06-15 01:03:00,
2013-06-14 21:08:00,55.0,52.7,29.70,North,0,0.7,0.7,92,0.00,,,0.53,meteobridge,2013-06-15 01:08:00,
2013-06-14 21:13:00,55.0,52.7,29.70,North,0,0.0,0.7,92,0.00,,,0.53,meteobridge,2013-06-15 01:13:00,
2013-06-14 21:19:00,55.0,52.7,29.70,North,0,0.0,0.0,92,0.00,,,0.53,meteobridge,2013-06-15 01:19:00,
2013-06-14 21:24:00,55.0,53.1,29.70,North,0,0.0,0.0,93,0.00,,,0.53,meteobridge,2013-06-15 01:24:00,
2013-06-14 21:29:00,55.0,53.1,29.70,NW,315,0.0,0.0,93,0.00,,,0.53,meteobridge,2013-06-15 01:29:00,
2013-06-14 21:34:00,55.0,53.4,29.70,South,180,1.6,1.6,94,0.00,,,0.53,meteobridge,2013-06-15 01:34:00,
2013-06-14 21:39:00,55.0,53.4,29.71,West,270,0.0,0.7,94,0.00,,,0.53,meteobridge,2013-06-15 01:39:00,
2013-06-14 21:44:00,54.9,53.2,29.71,West,270,0.0,0.0,94,0.00,,,0.53,meteobridge,2013-06-15 01:44:00,
2013-06-14 21:50:00,54.9,53.2,29.71,West,270,0.0,0.0,94,0.00,,,0.53,meteobridge,2013-06-15 01:50:00,
2013-06-14 21:55:00,54.9,53.4,29.71,West,270,0.0,0.7,95,0.00,,,0.53,meteobridge,2013-06-15 01:55:00,
2013-06-14 22:00:00,54.7,53.2,29.71,West,270,0.0,0.0,95,0.00,,,0.53,meteobridge,2013-06-15 02:00:00,
2013-06-14 22:05:00,54.7,53.2,29.71,West,270,0.0,0.0,95,0.00,,,0.53,meteobridge,2013-06-15 02:05:00,
2013-06-14 22:10:00,54.7,53.2,29.71,SW,225,0.0,0.0,95,0.00,,,0.53,meteobridge,2013-06-15 02:10:00,
2013-06-14 22:15:00,54.5,53.1,29.71,SE,135,0.0,0.0,95,0.00,,,0.53,meteobridge,2013-06-15 02:15:00,
2013-06-14 22:21:00,54.5,53.1,29.70,SE,135,0.7,0.7,95,0.00,,,0.53,meteobridge,2013-06-15 02:21:00,
2013-06-14 22:26:00,54.7,53.2,29.70,South,180,0.7,1.6,95,0.00,,,0.53,meteobridge,2013-06-15 02:26:00,
2013-06-14 22:31:00,54.7,53.2,29.70,South,180,0.7,0.7,95,0.00,,,0.53,meteobridge,2013-06-15 02:31:00,
2013-06-14 22:36:00,54.7,53.2,29.70,South,180,0.7,0.7,95,0.00,,,0.53,meteobridge,2013-06-15 02:36:00,
2013-06-14 22:41:00,54.3,52.9,29.70,South,180,0.0,0.0,95,0.00,,,0.53,meteobridge,2013-06-15 02:41:00,
2013-06-14 22:47:00,54.3,52.9,29.70,South,180,0.0,0.0,95,0.00,,,0.53,meteobridge,2013-06-15 02:47:00,
2013-06-14 22:52:00,54.1,53.1,29.70,South,180,0.0,0.0,96,0.00,,,0.53,meteobridge,2013-06-15 02:52:00,
2013-06-14 22:57:00,54.1,53.1,29.70,South,180,0.0,0.0,96,0.00,,,0.53,meteobridge,2013-06-15 02:57:00,
2013-06-14 23:02:00,54.1,53.1,29.70,South,180,0.0,0.0,96,0.00,,,0.53,meteobridge,2013-06-15 03:02:00,
2013-06-14 23:07:00,54.1,53.1,29.69,South,180,0.0,0.0,96,0.00,,,0.53,meteobridge,2013-06-15 03:07:00,
2013-06-14 23:12:00,54.1,53.1,29.69,South,180,0.0,0.0,96,0.00,,,0.53,meteobridge,2013-06-15 03:12:00,
2013-06-14 23:18:00,54.1,53.1,29.70,South,180,0.0,0.0,96,0.00,,,0.53,meteobridge,2013-06-15 03:18:00,
2013-06-14 23:23:00,54.1,53.1,29.70,South,180,0.0,0.0,96,0.00,,,0.53,meteobridge,2013-06-15 03:23:00,
2013-06-14 23:28:00,54.1,53.1,29.69,South,180,0.0,0.0,96,0.00,,,0.53,meteobridge,2013-06-15 03:28:00,
2013-06-14 23:33:00,54.1,53.1,29.70,South,180,0.0,0.0,96,0.00,,,0.53,meteobridge,2013-06-15 03:33:00,
2013-06-14 23:38:00,54.0,53.1,29.70,South,180,0.0,0.0,97,0.00,,,0.53,meteobridge,2013-06-15 03:38:00,
2013-06-14 23:43:00,54.0,53.1,29.70,South,180,0.0,0.0,97,0.00,,,0.53,meteobridge,2013-06-15 03:43:00,
2013-06-14 23:49:00,54.1,53.2,29.70,South,180,0.0,0.0,97,0.00,,,0.53,meteobridge,2013-06-15 03:49:00,
2013-06-14 23:54:00,54.1,53.2,29.70,South,180,0.0,0.0,97,0.00,,,0.53,meteobridge,2013-06-15 03:54:00,
2013-06-14 23:59:00,54.1,53.2,29.71,South,180,0.0,0.0,97,0.00,,,0.53,meteobridge,2013-06-15 03:59:00,